Вернуться в каталог

STARLINK-34312

АктивенСвязьVLEO
NORAD 64711·PAYLOAD·🇺🇸 United States

Запущен Jun 28, 2025 с Vandenberg Space Force Base

Loading…

Ближайшие Пролёты (ближайшие 24 часа)

TLE

СвежийSource: CelesTrak SupGP

Эпоха: Sep 15, 2026, 03:34 UTC

1 64711C 25142R   26258.14909722 -.00026189  00000+0 -91103-3 0  2582
2 64711  70.0013 194.9681 0003378 271.4205 130.8387 15.29591623    16

Отслеживайте STARLINK-34312 в реальном времени с AllMySat

Download on the App Store